Location: Saint-Michel-des-Saints
(46.6688°N, 73.9573°W)
Time: 05:05:04
(UTC-04:00)

Envisat - Visible Passes

Search period start: 26 March 2019 00:00
Search period end: 05 April 2019 00:00
Orbit: 764 x 766 km, 98.2° (Epoch: 25 March)

Date Brightness Start Highest point End Pass type
(mag) Time Alt. Az. Time Alt. Az. Time Alt. Az.
26 Mar 5.4 20:32:54 10° SW 20:36:57 24° W 20:41:01 10° NW visible
27 Mar 4.1 19:55:03 10° S 19:59:57 49° W 20:04:53 10° NNW visible
28 Mar 6.0 21:00:09 10° WSW 21:02:47 14° W 21:05:27 10° NW visible
29 Mar 5.1 20:21:15 10° SSW 20:25:38 29° W 20:30:04 10° NW visible
30 Mar 3.7 19:43:40 10° S 19:48:41 61° WSW 19:53:44 10° NNW visible
31 Mar 5.8 20:48:04 10° SW 20:51:26 18° W 20:54:49 10° NW visible
01 Apr 4.7 20:09:41 10° SSW 20:14:21 36° W 20:19:02 10° NNW visible
03 Apr 5.6 20:36:13 10° SW 20:40:05 22° W 20:44:00 10° NW visible
04 Apr 4.3 19:58:12 10° S 20:03:04 45° W 20:07:57 10° NNW visible
